Hourly Weather Roundup
Issued by NWS Central Illinois

Home | Current Version | Previous Version | Text Only | Print | Product List | Glossary On
Versions: 1 2 3 4 5 6 7 8 9 10 11 12 13 14 15 16 17 18 19 20 21 22 23 24 25 26 27 28 29 30 31 32 33 34 35 36 37 38 39 40 41 42 43 44 45 46 47 48 49 50
000
NZUS43 KILX 280210
HWRILX

AREA WEATHER ROUNDUP
NATIONAL WEATHER SERVICE, LINCOLN IL
800 PM CST TUE JAN 27 2015


CITY           SKY/WX    TMP DP  RH WIND       PRES   REMARKS
BLOOMINGTON    CLOUDY    30  27  89 NE5       30.24S WCI  25
CHAMPAIGN      CLEAR     25  20  81 N3        30.25R
DECATUR        CLOUDY    30  24  78 NE7       30.24F WCI  23
FLORA          PTCLDY    31  28  90 CALM      30.26R
GALESBURG      CLOUDY    27  24  89 SE3       30.22F
JACKSONVILLE   CLOUDY    32  28  85 E10       30.23S WCI  24
LACON          CLOUDY    29  25  83 CALM      30.24S
LAWRENCEVILLE  CLOUDY    32  28  85 N7        30.26R WCI  26
LITCHFIELD     CLEAR     28  24  84 NE3       30.23F
$$


CITY           SKY/WX    TMP DP  RH WIND       PRES   REMARKS
LINCOLN        CLOUDY    32  26  76 CALM      30.25F
MACOMB         CLOUDY    29  26  90 SE6       30.25S WCI  23
MATTOON        PTCLDY    27  22  81 NE5       30.24R WCI  22
MT CARMEL AP   CLOUDY    34  28  80 N9        30.26R WCI  26
OLNEY-NOBLE AP CLOUDY    32  27  80 CALM      30.26R
PARIS          CLEAR     26  21  82 CALM      30.26S
PEORIA         CLOUDY    31  24  75 E6        30.25S WCI  25
PONTIAC        CLEAR     28  26  90 CALM      30.24F
RANTOUL        CLEAR     26  23  89 CALM      30.25S
ROBINSON       CLOUDY    31  27  84 N8        30.27R WCI  23
SPRINGFIELD    CLOUDY    32  26  78 VRB3      30.25S
TAYLORVILLE    CLOUDY    32  27  80 NE5       30.24S WCI  27
$$

...REGIONAL REPORTS...


CITY           SKY/WX    TMP DP  RH WIND       PRES   REMARKS
CHICAGO O`HARE PTCLDY    25  17  72 NE5       30.23F WCI  19
KANKAKEE       CLEAR     23  19  83 NE6       30.26S WCI  15
MOLINE         CLOUDY    27  22  81 S3        30.23F
MOUNT VERNON   CLEAR     28  21  74 NE5       30.25S WCI  23
PITTSFIELD     MOCLDY    30  27  90 E3        30.24R
QUINCY         CLEAR     29  25  85 E7        30.21S WCI  22
ROCKFORD       PTCLDY    25  20  81 CALM      30.24S
$$


CITY           SKY/WX    TMP DP  RH WIND       PRES   REMARKS
BURLINGTON     CLOUDY    29  25  85 E7        30.21F WCI  22
CEDAR RAPIDS   CLOUDY    29  25  85 SE7       30.20R WCI  22
DES MOINES     CLEAR     34  28  79 SE9       30.14F WCI  27
KIRKSVILLE     CLEAR     33  31  92 E8        30.18R WCI  26
OTTUMWA        CLEAR     29  26  89 E8        30.18S WCI  21
ST LOUIS       CLEAR     33  27  78 E8        30.24R WCI  26
$$


CITY           SKY/WX    TMP DP  RH WIND       PRES   REMARKS
TERRE HAUTE    CLEAR     25  18  74 N5        30.26R WCI  19
EVANSVILLE     CLOUDY    34  28  79 N6        30.25S WCI  29
INDIANAPOLIS   CLEAR     21  11  65 N6        30.23R WCI  13
LAFAYETTE      CLEAR     20  15  81 CALM      30.25R
MADISON        CLOUDY    26  20  77 E5        30.20F WCI  20
MILWAUKEE      MOCLDY    27  17  66 N3        30.24F
$$





USA.gov is the U.S. government's official web portal to all federal, state and local government web resources and services.